CYCBCYHK

Guest
Details From CYCB - CAMBRIDGE BAY
To CYHK - Gjoa Haven
Flight Number -
Tags generated
Created
Modified
Stats Distance 203 nm / 377 km
Max Altitude 1,700 ft / 518 m
Waypoints 4
Social Downloads 1
Likes 0
Share VATSIM

Download

Looking for another format? Having issues loading an existing format? Contact us
Advertisement - Login to hide

Notes

Basic altitude profile: - Ascent Rate: 300ft/min - Ascent Speed: 150kts - Cruise Altitude: 6000ft - Cruise Speed: 200kts - Descent Rate: 600ft/min - Descent Speed: 150kts Options: - Use NATs: yes - Use PACOTS: yes - Use low airways: yes - Use high airways: no

Route

CYCB CB RR30 YHK CYHK

ID Type Via Altitude Latitude Longitude Leg Dist Tot Dist Heading (true) Name
O CYCB APT - 0 ft / 0 m 69.10806˚ -105.13833˚ - 0 nm - CAMBRIDGE BAY
CB NDB - 900 ft / 274 m 69.11478˚ -105.01592˚ 2 nm 2 nm 81° / 81° CAMBRIDGE BAY NDB
YHK NDB RR30 (AWY-LO) 1,700 ft / 518 m 68.62611˚ -95.85833˚ 200 nm 202 nm 94° / 103° GJOA HAVEN NDB
O CYHK APT - 0 ft / 0 m 68.63545˚ -95.85024˚ 0 nm 203 nm 18° / 18° Gjoa Haven

Altitude Profile

Advertisement - Login to hide

Weather


0- 5 10 15 20 25 30 35+ Temperature / ° C

Clouds and Precipitation
Forecast for 2018-05-25 18:00 UTC. Updated an hour ago

Ground ~20,000 ft ~40,000 ft Winds

CYCB

Details ICAO CYCB (YCB)
Name CAMBRIDGE BAY
Region Canada
Timezone America/Cambridge_Bay (UTC-6.0)
Stats Elevation 90 ft / 27 m (AMSL)
Location 69.108056° -105.138334°
Runways 1
Magnetic Variation 6.829° E

METAR

CYCB 251800Z 14014KT 3SM -SN BR OVC005 M08/M09 A3007 RMK SC8 SLP186

Decode

TAF

TAF TAF CYCB 251238Z 2513/2601 12007KT 6SM BR SCT002 BKN015 TEMPO 2513/2516 1SM BR BKN002 FM251600 14012KT P6SM FEW006 BKN015 TEMPO 2516/2519 5SM BR BKN006 FM251900 14012KT P6SM SCT015 BKN100 TEMPO 2519/2601 BKN015 RMK NXT FCST BY 251900Z

Decode

Departure Runways

ID Width Length Bearing (true) Bearing (mag) Surface Threshold Offset Overrun Length
13T 150 ft / 46 m 5,006 ft / 1,526 m 127.39° 120.56° Gravel 0 ft / 0 m 0 ft / 0 m
31T 150 ft / 46 m 5,006 ft / 1,526 m 307.42° 300.59° Gravel 0 ft / 0 m 100 ft / 30 m

CYHK

Details ICAO CYHK (YHK)
Name Gjoa Haven
Region Canada
Timezone America/Cambridge_Bay (UTC-6.0)
Stats Elevation 154 ft / 47 m (AMSL)
Location 68.635447° -95.850245°
Runways 1
Magnetic Variation 7.240° W

METAR

CYHK 251800Z 23007KT 1 1/4SM BR SCT004 BKN006 M08/M09 A3018 RMK FG3ST1ST3 VIS SE 3 SUN DIMLY VISIBLE SLP226

Decode

TAF

TAF CYHK 251746Z 2518/2606 23008KT 1SM BR SCT004 BKN006 TEMPO 2518/2603 P6SM NSW OVC009 BECMG 2601/2603 15010KT FM260300 15010KT P6SM SCT010 TEMPO 2603/2606 2SM BR BKN010 BECMG 2604/2606 12010KT RMK NXT FCST BY 260000Z

Decode

Destination Runways

ID Width Length Bearing (true) Bearing (mag) Surface Threshold Offset Overrun Length
13T 98 ft / 30 m 4,465 ft / 1,361 m 126.79° 134.03° Gravel 0 ft / 0 m 0 ft / 0 m
31T 98 ft / 30 m 4,465 ft / 1,361 m 306.81° 314.05° Gravel 0 ft / 0 m 0 ft / 0 m

Popular Alternatives